Location: Chimay
(50.0486°N, 4.3171°E)
Time: 21:54:16
(UTC+00:00)

Cosmos 1633 Rocket - Pass Details

Date: 08 August 2020
Orbit: 606 x 624 km, 82.5° (Epoch: 22 September)

Event Time Altitude Azimuth Distance (km) Brightness Sun altitude
Exits shadow 20:55:04 - 190° (S) 2,176 5.5 -13.9°
Reaches altitude 10° 20:55:31 10° 190° (S) 1,994 5.3 -14.0°
Maximum altitude 20:59:57 86° 280° (W) 633 3.1 -14.5°
Drops below altitude 10° 21:04:25 10° 9° (N) 2,006 6.2 -14.9°
Sets 21:06:39 0° 10° (N) 2,916 7.1 -15.2°
